[[{"header":{"parameterUnit":"m.s-1","parameterCategory":1,"la1":30.2991,"la2":30.254,"lo1":-89.0895,"lo2":-89.0444,"dy":0.0017,"dx":0.0017,"nx":28,"ny":28,"refTime":"2023-11-07T09:00:00:Z","depth":0,"parameterNumber":2,"parameterNumberName":"U-component_of_WINDS"},"data":[0,0,0,0,0,0,0,0,0,0,0,0,0,0,0,0,0,0,0,0,0,0,0,0,0,0,0,0,0,0,0,0,0,0,0,0,0,0,0,0,0,0,0,0,0,0,0,0,0,0,0,0,0,0,0,0,0,0,-1.1686,-1.1686,0,-1.1631,-1.163,-1.163,-1.1552,-1.1551,-1.155,-1.1548,-1.1494,-1.1493,-1.1493,0,0,0,0,0,0,0,0,0,0,0,0,0,-1.1728,-1.1727,-1.1686,-1.1686,-1.1685,-1.1631,-1.163,-1.1629,-1.1552,-1.1551,-1.1549,-1.1548,-1.1494,-1.1493,-1.1493,0,0,0,0,0,0,0,0,0,0,0,0,0,-1.1695,-1.1727,-1.1687,-1.164,-1.1635,-1.1631,-1.163,-1.1629,-1.1553,-1.1551,-1.1549,-1.1547,-1.1494,-1.1493,-1.1493,-1.1531,0,0,-1.1492,-1.1492,0,0,0,0,0,0,0,0,-1.1697,-1.1693,-1.1648,-1.1643,-1.1638,-1.1596,-1.1624,-1.1596,-1.1553,-1.1584,-1.1548,-1.1546,-1.153,-1.1526,-1.152,-1.1528,-1.1526,-1.1492,-1.1492,-1.1492,-1.1492,0,0,0,0,0,0,0,-1.1699,-1.1695,-1.1664,-1.1647,-1.1641,-1.1623,-1.1616,-1.1619,-1.1569,-1.1581,-1.1576,-1.157,-1.1527,-1.1521,-1.1518,-1.1525,-1.1492,-1.1492,-1.1492,-1.1491,-1.1559,-1.156,0,0,0,0,0,0,-1.1708,-1.1698,-1.1666,-1.1663,-1.1663,-1.1623,-1.1616,-1.1612,-1.1568,-1.156,-1.1572,-1.1567,-1.1522,-1.1519,-1.1516,-1.1555,-1.1492,-1.1491,-1.1491,-1.1557,-1.1559,-1.1561,0,0,0,0,0,0,-1.1709,-1.1706,-1.1668,-1.1679,-1.1672,-1.1625,-1.1621,-1.1612,-1.1605,-1.1561,-1.1552,-1.1575,-1.1521,-1.1517,-1.1527,-1.1552,-1.1491,-1.1491,-1.1554,-1.1557,-1.156,-1.1634,0,0,0,0,0,0,-1.1711,-1.1707,-1.172,-1.1679,-1.1672,-1.168,-1.1623,-1.1612,-1.1605,-1.1598,-1.1561,-1.1554,-1.1519,-1.1528,-1.1527,-1.155,-1.1491,-1.1552,-1.1556,-1.1559,-1.1629,-1.1639,-1.1648,0,0,0,0,0,-1.1712,-1.1744,-1.1721,-1.1718,-1.1688,-1.1681,-1.1677,-1.1636,-1.1607,-1.162,-1.1592,-1.1555,-1.155,-1.153,-1.1527,-1.1551,-1.155,-1.1555,-1.1559,-1.1625,-1.1637,-1.1647,0,0,0,0,0,0,-1.179,-1.1738,-1.1712,-1.1731,-1.1711,-1.1668,-1.1683,-1.165,-1.1639,-1.1632,-1.1582,-1.1575,-1.1591,-1.1573,-1.1551,-1.1584,-1.1544,-1.1549,-1.1595,-1.1606,-1.1616,-1.1618,-1.149,0,0,0,0,0,-1.1809,-1.1808,-1.1763,-1.1784,-1.1775,-1.1732,-1.1727,-1.1697,-1.1674,-1.1666,-1.1638,-1.1618,-1.1612,-1.1609,-1.1601,-1.1627,-1.1617,-1.1643,-1.1652,-1.166,-1.1663,-1.1674,-1.1684,-1.1576,-1.1576,-1.1576,0,0,-1.1849,-1.182,-1.1823,-1.1799,-1.178,-1.1779,-1.1725,-1.1727,-1.1726,-1.1666,-1.1673,-1.1653,-1.1627,-1.1645,-1.1652,-1.163,-1.1691,-1.1666,-1.1672,-1.1671,-1.1679,-1.169,-1.1699,-1.1579,-1.1578,-1.1578,0,0,-1.192,-1.1899,-1.1913,-1.1895,-1.1867,-1.1837,-1.1841,-1.1803,-1.1786,-1.1793,-1.1747,-1.1746,-1.1737,-1.172,-1.171,-1.1776,-1.174,-1.1775,-1.1822,-1.1833,-1.1842,-1.1849,-1.187,-1.1878,-1.1779,-1.1779,-1.1779,0,-1.1973,-1.197,-1.1925,-1.193,-1.192,-1.1866,-1.1879,-1.1864,-1.1835,-1.183,-1.1807,-1.1793,-1.1772,-1.1784,-1.18,-1.1795,-1.1797,-1.1777,-1.1844,-1.1851,-1.1857,-1.1876,-1.1884,-1.1783,-1.1783,-1.1782,-1.1782,0,-1.2035,-1.2034,-1.2049,-1.202,-1.2013,-1.2023,-1.198,-1.1978,-1.1949,-1.1922,-1.1929,-1.1902,-1.1887,-1.1888,-1.186,-1.1896,-1.1883,-1.1853,-1.1811,-1.1872,-1.1889,-1.1896,-1.1789,-1.1788,-1.1787,-1.1785,0,0,-1.2151,-1.2098,-1.2104,-1.209,-1.2055,-1.2053,-1.206,-1.2044,-1.2042,-1.2025,-1.2029,-1.2022,-1.1994,-1.1983,-1.1953,-1.1963,-1.2013,-1.1931,-1.1929,-1.1945,-1.2048,-1.2069,-1.2078,-1.1991,-1.1992,-1.1993,-1.2049,0,-1.2213,-1.2221,-1.2181,-1.2199,-1.2197,-1.2145,-1.2151,-1.2131,-1.2106,-1.2101,-1.2074,-1.2069,-1.2033,-1.2026,-1.2034,-1.2005,-1.2033,-1.2001,-1.1992,-1.1993,-1.1997,-1.2087,-1.2109,-1.2163,-1.2056,-1.2057,-1.2058,0,-1.2286,-1.2271,-1.2288,-1.2251,-1.2248,-1.2254,-1.2236,-1.2232,-1.2207,-1.2189,-1.2177,-1.2142,-1.2146,-1.2108,-1.2113,-1.2092,-1.2087,-1.2073,-1.2074,-1.2069,-1.2027,-1.2082,-1.218,-1.2187,-1.2069,-1.2068,-1.2067,0,-1.2366,-1.235,-1.2357,-1.2348,-1.2305,-1.231,-1.2293,-1.2266,-1.2259,-1.2243,-1.2238,-1.2224,-1.2216,-1.2206,-1.2168,-1.2145,-1.2176,-1.2136,-1.216,-1.2161,-1.2166,-1.2166,-1.2261,-1.2168,-1.2168,-1.2168,-1.2168,0,-1.2437,-1.2449,-1.2392,-1.2397,-1.2409,-1.2364,-1.2377,-1.2355,-1.2332,-1.2331,-1.2287,-1.2288,-1.2239,-1.2234,-1.2206,-1.2212,-1.221,-1.2194,-1.2186,-1.2196,-1.2198,-1.219,-1.2184,-1.217,-1.217,-1.2169,-1.2169,0,-1.2527,-1.2489,-1.2494,-1.2453,-1.2443,-1.2453,-1.2418,-1.2421,-1.2394,-1.2394,-1.2391,-1.2349,-1.2341,-1.2303,-1.2287,-1.2267,-1.2283,-1.2269,-1.2291,-1.2284,-1.2309,-1.2306,-1.24,-1.2409,-1.2314,-1.2315,-1.2316,0,-1.2573,-1.2581,-1.2541,-1.2537,-1.2521,-1.2515,-1.2507,-1.2464,-1.2457,-1.243,-1.2435,-1.2424,-1.2411,-1.2401,-1.2369,-1.2356,-1.2339,-1.2373,-1.2336,-1.2346,-1.2336,-1.2334,-1.2334,-1.238,-1.2381,-1.2382,-1.2383,0,-1.2659,-1.264,-1.2629,-1.2612,-1.2604,-1.2589,-1.2571,-1.257,-1.2522,-1.2517,-1.2508,-1.2499,-1.2481,-1.2469,-1.2451,-1.2433,-1.2399,-1.2395,-1.2399,-1.2408,-1.2419,-1.2411,-1.2308,-1.2392,-1.2391,-1.2391,-1.239,-1.239,-1.2726,-1.273,-1.2701,-1.2691,-1.2673,-1.2658,-1.2657,-1.263,-1.2621,-1.2602,-1.2578,-1.2572,-1.2546,-1.2518,-1.2503,-1.2497,-1.2478,-1.2485,-1.2486,-1.2488,-1.2492,-1.2423,-1.2494,-1.2494,-1.2493,-1.2493,-1.2493,0,-1.2807,-1.2786,-1.2777,-1.2753,-1.2745,-1.2715,-1.2693,-1.2688,-1.2683,-1.2662,-1.2651,-1.2639,-1.2628,-1.2595,-1.258,-1.2582,-1.2566,-1.2579,-1.2577,-1.2573,-1.2511,-1.2507,-1.2592,-1.2592,-1.2592,-1.2592,-1.2592,-1.2592,-1.2847,-1.2851,-1.2829,-1.2824,-1.2803,-1.2795,-1.2785,-1.2771,-1.2753,-1.2742,-1.2732,-1.2711,-1.2685,-1.2668,-1.2656,-1.2646,-1.2642,-1.2659,-1.2645,-1.2587,-1.2578,-1.2568,-1.2565,-1.266,-1.266,-1.2707,-1.2707,-1.2707]},{"header":{"parameterUnit":"m.s-1","parameterCategory":1,"la1":30.2991,"la2":30.254,"lo1":-89.0895,"lo2":-89.0444,"dy":0.0017,"dx":0.0017,"nx":28,"ny":28,"refTime":"2023-11-07T09:00:00:Z","depth":0,"parameterNumber":3,"parameterNumberName":"V-component_of_WINDS"},"data":[0,0,0,0,0,0,0,0,0,0,0,0,0,0,0,0,0,0,0,0,0,0,0,0,0,0,0,0,0,0,0,0,0,0,0,0,0,0,0,0,0,0,0,0,0,0,0,0,0,0,0,0,0,0,0,0,0,0,3.0941,3.0941,0,3.0918,3.0918,3.0918,3.0949,3.0951,3.0952,3.0953,3.0923,3.0921,3.0919,0,0,0,0,0,0,0,0,0,0,0,0,0,3.1008,3.1007,3.0941,3.0941,3.0941,3.0918,3.0918,3.0918,3.0949,3.0951,3.0952,3.0953,3.0924,3.0921,3.0919,0,0,0,0,0,0,0,0,0,0,0,0,0,3.0982,3.1007,3.0941,3.0954,3.0955,3.0918,3.0918,3.0918,3.0949,3.0951,3.0952,3.0954,3.0924,3.0922,3.0919,3.0867,0,0,3.091,3.0909,0,0,0,0,0,0,0,0,3.0983,3.0979,3.0952,3.0953,3.0954,3.0939,3.0931,3.09,3.0949,3.0951,3.0953,3.0955,3.0926,3.0923,3.0915,3.0866,3.0864,3.091,3.0908,3.0907,3.0906,0,0,0,0,0,0,0,3.0985,3.098,3.0932,3.0952,3.0953,3.0959,3.0958,3.0925,3.0929,3.0951,3.0953,3.095,3.0927,3.0918,3.0915,3.0864,3.091,3.0908,3.0906,3.0905,3.0774,3.0772,0,0,0,0,0,0,3.0986,3.0982,3.0933,3.0931,3.0973,3.0957,3.0955,3.0942,3.093,3.0929,3.0949,3.0952,3.0922,3.0918,3.0914,3.0855,3.0907,3.0904,3.0903,3.0776,3.0773,3.0771,0,0,0,0,0,0,3.0987,3.0981,3.0934,3.0957,3.0952,3.0954,3.0939,3.094,3.0931,3.0928,3.0928,3.0939,3.0923,3.0918,3.088,3.0854,3.0903,3.0901,3.0778,3.0775,3.0772,3.0734,0,0,0,0,0,0,3.0989,3.0982,3.0963,3.0957,3.095,3.0901,3.0937,3.0939,3.0927,3.0931,3.0919,3.0919,3.0924,3.0884,3.0877,3.0851,3.0898,3.078,3.0776,3.0773,3.0738,3.073,3.0724,0,0,0,0,0,3.0991,3.095,3.0961,3.0955,3.0927,3.0899,3.0895,3.0904,3.0925,3.0905,3.0904,3.0919,3.0858,3.0879,3.0872,3.0845,3.0782,3.0777,3.0774,3.0741,3.0732,3.0724,0,0,0,0,0,0,3.095,3.095,3.0962,3.0918,3.0909,3.0905,3.088,3.0894,3.0877,3.0881,3.0891,3.0888,3.0848,3.0842,3.0866,3.0796,3.0823,3.0817,3.0801,3.0792,3.0786,3.0788,3.0896,0,0,0,0,0,3.0937,3.0916,3.0916,3.0877,3.0872,3.0877,3.0865,3.0874,3.0863,3.0859,3.0854,3.0842,3.0821,3.0806,3.0786,3.0737,3.0736,3.0715,3.0709,3.0703,3.0698,3.0674,3.0666,3.0758,3.0758,3.0758,0,0,3.0907,3.0904,3.089,3.0869,3.0863,3.0841,3.0873,3.0847,3.0831,3.0854,3.0819,3.0816,3.0803,3.076,3.0741,3.0754,3.0672,3.0698,3.0694,3.0691,3.0669,3.0661,3.0653,3.0755,3.0756,3.0756,0,0,3.0842,3.0838,3.0807,3.0801,3.0792,3.0796,3.0789,3.0784,3.0783,3.0749,3.0767,3.0746,3.0708,3.07,3.069,3.0626,3.064,3.0619,3.0584,3.0561,3.0554,3.0547,3.0526,3.0518,3.0614,3.0614,3.0614,0,3.0806,3.0775,3.0788,3.0763,3.0753,3.0777,3.0745,3.0738,3.0722,3.0715,3.0731,3.0687,3.0679,3.0636,3.0621,3.0612,3.0604,3.062,3.0554,3.0548,3.0542,3.0522,3.0513,3.0612,3.0612,3.0612,3.0612,0,3.0732,3.071,3.0685,3.0674,3.0661,3.0632,3.0641,3.0627,3.0637,3.0639,3.0605,3.0598,3.0578,3.0569,3.0576,3.0527,3.0536,3.0553,3.058,3.0531,3.0512,3.0504,3.0608,3.0609,3.061,3.061,0,0,3.0638,3.0637,3.0628,3.0624,3.0618,3.0601,3.0573,3.0557,3.0546,3.0534,3.0512,3.0482,3.0498,3.0488,3.0495,3.0475,3.0427,3.0494,3.0494,3.0483,3.0375,3.0363,3.0353,3.0436,3.0435,3.0434,3.0376,0,3.0575,3.0531,3.0544,3.0499,3.048,3.0503,3.048,3.0473,3.0475,3.0458,3.046,3.0439,3.0461,3.0456,3.0437,3.0437,3.0405,3.0441,3.0415,3.0414,3.0419,3.0343,3.033,3.0276,3.0369,3.0367,3.0367,0,3.0495,3.0485,3.0439,3.044,3.0432,3.0411,3.0398,3.0382,3.0375,3.0378,3.0369,3.0381,3.0354,3.0383,3.0346,3.037,3.0361,3.036,3.0358,3.0356,3.0388,3.034,3.0258,3.0251,3.0355,3.0356,3.0357,0,3.0434,3.0408,3.0378,3.0374,3.0373,3.0358,3.0357,3.0352,3.0342,3.0331,3.0325,3.0309,3.0301,3.0288,3.0296,3.0316,3.0259,3.0288,3.0261,3.0261,3.0247,3.0248,3.0164,3.024,3.024,3.024,3.024,0,3.0362,3.0334,3.0351,3.0333,3.0302,3.0317,3.0285,3.0286,3.0283,3.0265,3.0283,3.0265,3.0277,3.026,3.0266,3.0236,3.0231,3.0233,3.0235,3.0232,3.0232,3.0225,3.023,3.0238,3.0239,3.0239,3.0239,0,3.0288,3.0299,3.0268,3.0271,3.0272,3.0249,3.0251,3.0234,3.0239,3.0216,3.0211,3.0218,3.0199,3.0207,3.0185,3.019,3.0152,3.0158,3.0155,3.0157,3.013,3.0133,3.0039,3.0028,3.0111,3.011,3.0109,0,3.0242,3.0221,3.0224,3.0214,3.0213,3.0196,3.0188,3.0202,3.0192,3.0186,3.0169,3.0153,3.0141,3.0111,3.0113,3.0098,3.0104,3.0073,3.0102,3.01,3.0105,3.0107,3.0106,3.0067,3.0066,3.0065,3.0064,0,3.016,3.0167,3.0155,3.0146,3.0136,3.0129,3.0123,3.0113,3.0128,3.0116,3.0099,3.009,3.0071,3.0055,3.0043,3.004,3.0054,3.0055,3.0049,3.0045,3.0045,3.0046,3.014,3.0057,3.0058,3.0058,3.0059,3.0059,3.0099,3.0083,3.0083,3.007,3.0068,3.0063,3.0048,3.0053,3.004,3.0027,3.0036,3.0017,3.0013,2.9998,2.9994,2.9978,2.999,2.998,2.9978,2.9975,2.9973,3.0048,2.9976,2.9976,2.9976,2.9976,2.9976,0,3.002,3.0022,3.001,3.0003,2.9993,3.0011,3.0006,2.9995,2.9979,2.9975,2.9964,2.9946,2.9931,2.9934,2.9921,2.9908,2.9914,2.9904,2.9905,2.9905,2.9961,2.9969,2.9899,2.9899,2.9899,2.9899,2.9899,2.9899,2.9977,2.9951,2.9959,2.9933,2.9935,2.9918,2.9914,2.991,2.9907,2.9887,2.9876,2.9879,2.9878,2.9866,2.9853,2.9854,2.9849,2.9836,2.984,2.9893,2.99,2.9907,2.9915,2.9835,2.9834,2.9784,2.9784,2.9783]}]]